Regional Weather Roundup
Issued by NWS Newport/Morehead, NC

Home | Current Version | Previous Version | Text Only | Print | Product List | Glossary On
Versions: 1 2 3 4 5 6 7 8 9 10 11 12 13 14 15 16 17 18 19 20 21 22 23 24 25 26 27 28 29 30 31 32 33 34 35 36 37 38 39 40 41 42 43 44 45 46 47 48 49 50
000
ASUS42 KMHX 290025
RWRMHX
WEATHER ROUNDUP FOR EASTERN NORTH CAROLINA
NATIONAL WEATHER SERVICE NEWPORT/MOREHEAD CITY NC
800 PM EDT SUN AUG 28 2016

NOTE: "FAIR" INDICATES FEW OR NO CLOUDS BELOW 12,000 FEET
WITH NO SIGNIFICANT WEATHER AND/OR OBSTRUCTIONS TO VISIBILITY

NCZ015>017-031-032-045>047-102-103-290100-
NORTH COAST

CITY           SKY/WX    TMP DP  RH WIND       PRES   REMARKS
EDENTON        CLOUDY    80  72  75 NE7       30.12S
ELIZABETH CITY MOCLDY    78  74  87 N12       30.12S
KITTY HAWK     CLOUDY    79  79 100 NE3       30.10R
MANTEO         CLOUDY    79  78  96 NE9       30.11S

$$

NCZ045>047-081-094-103-104-290100-
CENTRAL COAST

CITY           SKY/WX    TMP DP  RH WIND       PRES   REMARKS
FRISCO         CLOUDY    80  75  84 NE6       30.08F

$$

NCZ095-097-098-100-101-290100-
SOUTHERN COAST

CITY           SKY/WX    TMP DP  RH WIND       PRES   REMARKS
BEAUFORT       MOCLDY    79  77  94 NE6       30.07S
CEDAR ISLAND   NOT AVBL
JACKSONVILLE   PTCLDY    78  74  87 NE10      30.07S
PINEY ISLAND   NOT AVBL
WILMINGTON     PTCLDY    77  74  90 NE5       30.07R


$$

NCZ011>013-027>030-043-044-078>080-089-090>093-098-290100-
COASTAL PLAIN

CITY           SKY/WX    TMP DP  RH WIND       PRES   REMARKS
AHOSKIE        CLOUDY    77  70  79 NE5       30.13S
CLINTON        CLOUDY    75  75 100 CALM      30.09S
ELIZABETHTOWN  PTCLDY    76  75  99 CALM      30.09S
GOLDSBORO      MOCLDY    77  77 100 NE6       30.09R
GREENVILLE     LGT RAIN  77  77 100 CALM      30.11F
HAVELOCK       PTCLDY    79  76  90 N8        30.09S
KENANSVILLE    MOCLDY    75  75 100 NE3       30.09S FOG
KINSTON        CLOUDY    77  73  88 NE6       30.11R
NEW BERN       MOCLDY    76  74  93 NE7       30.10S
RICHLANDS      CLOUDY    75  75 100 NE8       30.09R
ROCKY MOUNT    MOCLDY    80  74  81 NE5       30.11S
WASHINGTON     DRIZZLE   73  73  97 CALM      30.11S
WHITEVILLE     CLOUDY    78  73  84 CALM      30.08R

$$

AMZ130-135-150-152-154-156-158-170-250-252-270-ANZ085-086-088-633-658-670-290100-
MARINE OBSERVATIONS

STATION/POSITION TIME  TEMP    WIND        PRES    WAVE   SWELL
                       AIR SEA DIR/SP/G            HT/PER HT/PER
                 (UTC) (F)     (DEG/KT/KT) (MB)    (FT/S) (FT/S)
CHESAPEAKE LIGHT NOT AVBL
64 E VA BEACH    2350   80 81   50/ 17/ 19 1018.7    5/ 8   2/ 8
DUCK             2300   80 77   30/ 15/ 17 1018.8
2 E DUCK         2311      79                N/A     4/ 5
OREGON INLET     2300   80 80   30/  6/  8 1019.0
13E OREGON INLT  0000      81                N/A     4/ 5   3/ 5
HATTERAS CG      2300   82 82   40/  6/  8 1018.4
DIAMOND BUOY     2350   82 85   40/ 14/ 16 1018.4    3/15   2/15
CAPE LOOKOUT     0000   82      40/ 13/ 15 1018.0
BEAUFORT LAB     2300   81 82   10/  7/ 10 1017.7
30 SE NEW RVR IN 0008   83 84   60/ 14/ 17 1017.8
30 SE NEW RVR IN 2325      84                N/A     3/ 8
27 SE WRIGHTSVLE 0008   83 84   50/ 14/ 17 1017.7
5 SE WRIGHTSVLE  2308   81 83   30/ 12/ 16 1018.5
225 S CAPE HAT   2350   83 84   30/ 12/ 16 1016.2    4/15   3/15
41 SE CHARLESTON 2350   84 85   50/ 12/ 14 1016.5    3/ 8   2/ 8

$$



USA.gov is the U.S. government's official web portal to all federal, state and local government web resources and services.